Location: Bayshore Village Mobile Home Park
(26.6945°N, 81.8642°W)
Time: 21:22:11
(UTC+00:00)

Meteor 1-16 Rocket - Pass Details

Date: 17 June 2021
Orbit: 790 x 908 km, 81.2° (Epoch: 31 July)

Event Time Altitude Azimuth Distance (km) Brightness Sun altitude
Rises 03:00:28 0° 355° (N) 3,346 8.1 -28.5°
Reaches altitude 10° 03:02:54 10° 357° (N) 2,397 7.2 -28.8°
Enters shadow 03:07:19 59° 17° (NNE) 922 4.4 -29.4°
